Terminal Aerodrome Forecast
Issued by NWS

Home | Current Version | Previous Version | Text Only | Print | Product List | Glossary On
Versions: 1 2 3 4 5 6 7 8 9 10 11 12 13 14 15 16 17 18 19 20 21 22 23 24 25
351
FTUS44 KTSA 280314 AAB
TAFBVO
TAF AMD
KBVO 280314Z 2803/2824 19003KT P6SM BKN250
      TEMPO 2803/2805 BKN030
     FM280900 19005KT P6SM BKN020
     FM281300 20006KT P6SM SCT250=

USA.gov is the U.S. government's official web portal to all federal, state and local government web resources and services.